Time,TemperatureF,DewpointF,PressureIn,WindDirection,WindDirectionDegrees,WindSpeedMPH,WindSpeedGustMPH,Humidity,HourlyPrecipIn,Conditions,Clouds,dailyrainin,SoftwareType,DateUTC
2013-02-14 00:02:00,33.0,30.0,29.76,SW,221,2.0,4.0,89,0.00,,,0.00,,2013-02-14 05:02:00,
2013-02-14 00:11:00,33.0,30.0,29.76,SW,221,2.0,4.0,89,0.00,,,0.00,,2013-02-14 05:11:00,
2013-02-14 00:22:00,34.0,31.0,29.76,SW,218,4.0,5.0,88,0.00,,,0.00,,2013-02-14 05:22:00,
2013-02-14 00:32:00,34.0,31.0,29.76,SW,225,3.0,5.0,87,0.00,,,0.00,,2013-02-14 05:32:00,
2013-02-14 00:42:00,34.0,31.0,29.76,SW,225,3.0,5.0,87,0.00,,,0.00,,2013-02-14 05:42:00,
2013-02-14 00:52:00,34.0,31.0,29.75,SW,225,3.0,5.0,88,0.00,,,0.00,,2013-02-14 05:52:00,
2013-02-14 01:02:00,34.0,31.0,29.76,SW,234,3.0,6.0,88,0.00,,,0.00,,2013-02-14 06:02:00,
2013-02-14 01:11:00,34.0,31.0,29.76,SW,221,3.0,6.0,89,0.00,,,0.00,,2013-02-14 06:11:00,
2013-02-14 01:21:00,34.0,31.0,29.76,SW,221,3.0,6.0,89,0.00,,,0.00,,2013-02-14 06:21:00,
2013-02-14 01:32:00,34.0,31.0,29.75,SW,214,3.0,5.0,89,0.00,,,0.00,,2013-02-14 06:32:00,
2013-02-14 01:42:00,34.0,31.0,29.75,SW,214,3.0,5.0,89,0.00,,,0.00,,2013-02-14 06:42:00,
2013-02-14 01:51:00,34.0,31.0,29.76,SW,217,3.0,5.0,89,0.00,,,0.00,,2013-02-14 06:51:00,
2013-02-14 02:01:00,34.0,31.0,29.75,SW,215,3.0,4.0,90,0.00,,,0.00,,2013-02-14 07:01:00,
2013-02-14 02:11:00,34.0,31.0,29.75,SW,215,3.0,4.0,90,0.00,,,0.00,,2013-02-14 07:11:00,
2013-02-14 02:21:00,34.0,31.0,29.75,SSW,200,3.0,5.0,90,0.00,,,0.00,,2013-02-14 07:21:00,
2013-02-14 02:32:00,34.0,31.0,29.75,SW,221,3.0,5.0,90,0.00,,,0.00,,2013-02-14 07:32:00,
2013-02-14 02:42:00,34.0,31.0,29.75,SW,221,3.0,5.0,90,0.00,,,0.00,,2013-02-14 07:42:00,
2013-02-14 02:51:00,34.0,31.0,29.76,SSW,207,3.0,5.0,90,0.00,,,0.00,,2013-02-14 07:51:00,
2013-02-14 03:01:00,34.0,31.0,29.76,SW,227,4.0,6.0,90,0.00,,,0.00,,2013-02-14 08:01:00,
2013-02-14 03:11:00,34.0,31.0,29.76,SW,227,4.0,6.0,90,0.00,,,0.00,,2013-02-14 08:11:00,
2013-02-14 03:22:00,34.0,31.0,29.75,SW,222,4.0,6.0,90,0.00,,,0.00,,2013-02-14 08:22:00,
2013-02-14 03:32:00,35.0,32.0,29.76,WSW,242,5.0,10.0,87,0.00,,,0.00,,2013-02-14 08:32:00,
2013-02-14 03:43:00,35.0,32.0,29.76,WSW,242,5.0,10.0,87,0.00,,,0.00,,2013-02-14 08:43:00,
2013-02-14 03:52:00,35.0,32.0,29.76,SW,227,6.0,9.0,88,0.00,,,0.00,,2013-02-14 08:52:00,
2013-02-14 04:02:00,35.0,32.0,29.76,SW,225,6.0,9.0,88,0.00,,,0.00,,2013-02-14 09:02:00,
2013-02-14 04:11:00,35.0,32.0,29.76,SW,225,6.0,9.0,88,0.00,,,0.00,,2013-02-14 09:11:00,
2013-02-14 04:21:00,34.0,31.0,29.75,SSW,192,5.0,9.0,88,0.00,,,0.00,,2013-02-14 09:21:00,
2013-02-14 04:32:00,34.0,31.0,29.75,SSW,211,5.0,7.0,88,0.00,,,0.00,,2013-02-14 09:32:00,
2013-02-14 04:42:00,34.0,31.0,29.75,SSW,211,5.0,7.0,88,0.00,,,0.00,,2013-02-14 09:42:00,
2013-02-14 04:52:00,34.0,31.0,29.74,SW,218,5.0,8.0,89,0.00,,,0.00,,2013-02-14 09:52:00,
2013-02-14 05:02:00,33.0,30.0,29.74,SW,217,5.0,7.0,89,0.00,,,0.00,,2013-02-14 10:02:00,
2013-02-14 05:11:00,33.0,30.0,29.74,SSW,196,5.0,7.0,89,0.00,,,0.00,,2013-02-14 10:11:00,
2013-02-14 05:21:00,33.0,30.0,29.74,SSW,196,5.0,7.0,89,0.00,,,0.00,,2013-02-14 10:21:00,
2013-02-14 05:32:00,33.0,30.0,29.74,SSW,202,5.0,7.0,90,0.00,,,0.00,,2013-02-14 10:32:00,
2013-02-14 05:42:00,33.0,30.0,29.74,SSW,202,5.0,7.0,90,0.00,,,0.00,,2013-02-14 10:42:00,
2013-02-14 05:52:00,33.0,30.0,29.74,SW,217,4.0,7.0,90,0.00,,,0.00,,2013-02-14 10:52:00,
2013-02-14 06:02:00,33.0,30.0,29.73,SSW,198,4.0,7.0,90,0.00,,,0.00,,2013-02-14 11:02:00,
2013-02-14 06:11:00,33.0,30.0,29.73,SSW,198,4.0,7.0,90,0.00,,,0.00,,2013-02-14 11:11:00,
2013-02-14 06:21:00,33.0,30.0,29.73,SSW,202,5.0,7.0,90,0.00,,,0.00,,2013-02-14 11:21:00,
2013-02-14 06:32:00,34.0,31.0,29.73,SSW,205,6.0,9.0,90,0.00,,,0.00,,2013-02-14 11:32:00,
2013-02-14 06:42:00,34.0,31.0,29.73,SSW,205,6.0,9.0,90,0.00,,,0.00,,2013-02-14 11:42:00,
2013-02-14 06:52:00,34.0,31.0,29.73,SSW,196,8.0,11.0,89,0.00,,,0.00,,2013-02-14 11:52:00,
2013-02-14 07:02:00,34.0,31.0,29.73,South,185,6.0,10.0,89,0.00,,,0.00,,2013-02-14 12:02:00,
2013-02-14 07:12:00,34.0,31.0,29.73,South,185,6.0,10.0,89,0.00,,,0.00,,2013-02-14 12:12:00,
2013-02-14 07:22:00,34.0,31.0,29.73,SW,214,8.0,11.0,89,0.00,,,0.00,,2013-02-14 12:22:00,
2013-02-14 07:32:00,35.0,32.0,29.73,South,190,8.0,13.0,89,0.00,,,0.00,,2013-02-14 12:32:00,
2013-02-14 07:42:00,35.0,32.0,29.73,South,190,8.0,13.0,89,0.00,,,0.00,,2013-02-14 12:42:00,
2013-02-14 07:53:00,35.0,32.0,29.72,SSW,205,9.0,12.0,89,0.00,,,0.00,,2013-02-14 12:53:00,
2013-02-14 08:02:00,35.0,32.0,29.72,South,188,8.0,14.0,89,0.00,,,0.00,,2013-02-14 13:02:00,
2013-02-14 08:11:00,35.0,32.0,29.72,South,188,8.0,14.0,89,0.00,,,0.00,,2013-02-14 13:11:00,
2013-02-14 08:21:00,35.0,32.0,29.71,SSW,198,7.0,11.0,88,0.00,,,0.00,,2013-02-14 13:21:00,
2013-02-14 08:32:00,35.0,32.0,29.70,SSW,192,8.0,17.0,89,0.00,,,0.00,,2013-02-14 13:32:00,
2013-02-14 08:42:00,35.0,32.0,29.70,SSW,192,8.0,17.0,89,0.00,,,0.00,,2013-02-14 13:42:00,
2013-02-14 08:52:00,35.0,32.0,29.71,SSW,203,9.0,15.0,89,0.00,,,0.00,,2013-02-14 13:52:00,
2013-02-14 09:01:00,35.0,32.0,29.71,South,180,8.0,13.0,90,0.00,,,0.00,,2013-02-14 14:01:00,
2013-02-14 09:11:00,35.0,32.0,29.71,South,180,8.0,13.0,90,0.00,,,0.00,,2013-02-14 14:11:00,
2013-02-14 09:21:00,36.0,33.0,29.71,SSW,210,9.0,15.0,90,0.00,,,0.00,,2013-02-14 14:21:00,
2013-02-14 09:32:00,36.0,33.0,29.71,SSW,198,8.0,12.0,90,0.00,,,0.00,,2013-02-14 14:32:00,
2013-02-14 09:42:00,36.0,33.0,29.71,SSW,198,8.0,12.0,90,0.00,,,0.00,,2013-02-14 14:42:00,
2013-02-14 09:52:00,36.0,33.0,29.71,SSW,206,10.0,15.0,89,0.00,,,0.00,,2013-02-14 14:52:00,
2013-02-14 10:02:00,36.0,33.0,29.71,SSW,204,10.0,17.0,90,0.00,,,0.00,,2013-02-14 15:02:00,
2013-02-14 10:11:00,36.0,33.0,29.71,SSW,204,10.0,17.0,90,0.00,,,0.00,,2013-02-14 15:11:00,
2013-02-14 10:21:00,37.0,34.0,29.71,SSW,205,10.0,17.0,89,0.00,,,0.00,,2013-02-14 15:21:00,
2013-02-14 10:32:00,37.0,34.0,29.71,SW,228,10.0,19.0,88,0.00,,,0.00,,2013-02-14 15:32:00,
2013-02-14 10:42:00,37.0,34.0,29.71,SW,228,10.0,19.0,88,0.00,,,0.00,,2013-02-14 15:42:00,
2013-02-14 10:52:00,38.0,34.0,29.70,SSW,209,9.0,17.0,87,0.00,,,0.00,,2013-02-14 15:52:00,
2013-02-14 11:02:00,38.0,34.0,29.71,SSW,212,11.0,15.0,85,0.00,,,0.00,,2013-02-14 16:02:00,
2013-02-14 11:11:00,38.0,34.0,29.71,SSW,212,11.0,15.0,85,0.00,,,0.00,,2013-02-14 16:11:00,
2013-02-14 11:21:00,38.0,34.0,29.71,SW,223,11.0,17.0,85,0.00,,,0.00,,2013-02-14 16:21:00,
2013-02-14 11:32:00,38.0,34.0,29.71,SSW,207,11.0,17.0,86,0.00,,,0.00,,2013-02-14 16:32:00,
2013-02-14 11:42:00,38.0,34.0,29.71,SSW,207,11.0,17.0,86,0.00,,,0.00,,2013-02-14 16:42:00,
2013-02-14 11:51:00,39.0,35.0,29.71,SW,215,9.0,19.0,85,0.00,,,0.00,,2013-02-14 16:51:00,
2013-02-14 12:01:00,40.0,35.0,29.71,SW,225,11.0,18.0,83,0.00,,,0.00,,2013-02-14 17:01:00,
2013-02-14 12:11:00,40.0,35.0,29.71,SW,225,11.0,18.0,83,0.00,,,0.00,,2013-02-14 17:11:00,
2013-02-14 12:21:00,39.0,35.0,29.71,SW,219,10.0,17.0,84,0.00,,,0.00,,2013-02-14 17:21:00,
2013-02-14 12:32:00,39.0,35.0,29.71,SW,221,8.0,15.0,85,0.00,,,0.00,,2013-02-14 17:32:00,
2013-02-14 12:42:00,39.0,35.0,29.71,SW,221,8.0,15.0,85,0.00,,,0.00,,2013-02-14 17:42:00,
2013-02-14 12:52:00,39.0,35.0,29.71,SW,227,10.0,17.0,84,0.00,,,0.00,,2013-02-14 17:52:00,
2013-02-14 13:01:00,40.0,36.0,29.71,SSW,209,7.0,13.0,84,0.00,,,0.00,,2013-02-14 18:01:00,
2013-02-14 13:11:00,40.0,36.0,29.71,SSW,209,7.0,13.0,84,0.00,,,0.00,,2013-02-14 18:11:00,
2013-02-14 13:23:00,40.0,35.0,29.70,WSW,241,7.0,16.0,81,0.00,,,0.00,,2013-02-14 18:23:00,
2013-02-14 13:32:00,40.0,35.0,29.70,WSW,242,7.0,13.0,81,0.00,,,0.00,,2013-02-14 18:32:00,
2013-02-14 13:42:00,40.0,35.0,29.70,WSW,242,7.0,13.0,81,0.00,,,0.00,,2013-02-14 18:42:00,
2013-02-14 13:52:00,40.0,35.0,29.70,SW,230,7.0,13.0,82,0.00,,,0.00,,2013-02-14 18:52:00,
2013-02-14 14:02:00,40.0,35.0,29.70,SW,230,9.0,17.0,81,0.00,,,0.00,,2013-02-14 19:02:00,
2013-02-14 14:11:00,40.0,35.0,29.70,SW,230,9.0,17.0,81,0.00,,,0.00,,2013-02-14 19:11:00,
2013-02-14 14:22:00,41.0,35.0,29.70,West,265,7.0,18.0,79,0.00,,,0.00,,2013-02-14 19:22:00,
2013-02-14 14:32:00,40.0,34.0,29.70,SSW,213,9.0,20.0,78,0.00,,,0.00,,2013-02-14 19:32:00,
2013-02-14 14:42:00,40.0,34.0,29.70,SSW,213,9.0,20.0,78,0.00,,,0.00,,2013-02-14 19:42:00,
2013-02-14 14:52:00,40.0,34.0,29.70,West,261,9.0,19.0,78,0.00,,,0.00,,2013-02-14 19:52:00,
2013-02-14 15:01:00,39.0,32.0,29.72,SSW,207,7.0,17.0,77,0.00,,,0.00,,2013-02-14 20:01:00,
2013-02-14 15:11:00,39.0,32.0,29.72,SSW,207,7.0,17.0,77,0.00,,,0.00,,2013-02-14 20:11:00,
2013-02-14 15:21:00,39.0,33.0,29.72,West,275,6.0,14.0,79,0.00,,,0.00,,2013-02-14 20:21:00,
2013-02-14 15:32:00,38.0,32.0,29.73,North,10,5.0,15.0,79,0.00,,,0.00,,2013-02-14 20:32:00,
2013-02-14 15:42:00,38.0,32.0,29.73,North,10,5.0,15.0,79,0.00,,,0.00,,2013-02-14 20:42:00,
2013-02-14 15:52:00,38.0,32.0,29.73,North,10,5.0,15.0,79,0.00,,,0.00,,2013-02-14 20:52:00,
2013-02-14 16:02:00,38.0,31.0,29.74,WSW,248,6.0,13.0,75,0.00,,,0.00,,2013-02-14 21:02:00,
2013-02-14 16:11:00,38.0,31.0,29.74,WSW,248,6.0,13.0,75,0.00,,,0.00,,2013-02-14 21:11:00,
2013-02-14 16:22:00,38.0,31.0,29.75,WSW,244,6.0,17.0,75,0.00,,,0.00,,2013-02-14 21:22:00,
2013-02-14 16:32:00,38.0,31.0,29.75,SW,234,6.0,13.0,75,0.00,,,0.00,,2013-02-14 21:32:00,
2013-02-14 16:42:00,38.0,31.0,29.75,SW,234,6.0,13.0,75,0.00,,,0.00,,2013-02-14 21:42:00,
2013-02-14 16:52:00,38.0,31.0,29.76,SW,232,5.0,19.0,75,0.00,,,0.00,,2013-02-14 21:52:00,
2013-02-14 17:02:00,38.0,31.0,29.77,SW,227,8.0,14.0,76,0.00,,,0.00,,2013-02-14 22:02:00,
2013-02-14 17:11:00,38.0,31.0,29.77,SW,227,8.0,14.0,76,0.00,,,0.00,,2013-02-14 22:11:00,
2013-02-14 17:21:00,38.0,32.0,29.78,WSW,244,5.0,12.0,78,0.00,,,0.00,,2013-02-14 22:21:00,
2013-02-14 17:32:00,38.0,32.0,29.79,WSW,237,5.0,14.0,79,0.00,,,0.00,,2013-02-14 22:32:00,
2013-02-14 17:42:00,38.0,32.0,29.79,WSW,237,5.0,14.0,79,0.00,,,0.00,,2013-02-14 22:42:00,
2013-02-14 17:52:00,37.0,31.0,29.80,SW,225,5.0,13.0,79,0.00,,,0.00,,2013-02-14 22:52:00,
2013-02-14 18:01:00,37.0,31.0,29.80,WSW,250,5.0,14.0,80,0.00,,,0.00,,2013-02-14 23:01:00,
2013-02-14 18:11:00,37.0,31.0,29.80,WSW,250,5.0,14.0,80,0.00,,,0.00,,2013-02-14 23:11:00,
2013-02-14 18:21:00,37.0,31.0,29.81,SW,233,3.0,10.0,80,0.00,,,0.00,,2013-02-14 23:21:00,
2013-02-14 18:32:00,37.0,32.0,29.83,SW,231,2.0,8.0,81,0.00,,,0.00,,2013-02-14 23:32:00,
2013-02-14 18:42:00,37.0,32.0,29.83,SW,231,2.0,8.0,81,0.00,,,0.00,,2013-02-14 23:42:00,
2013-02-14 18:52:00,37.0,32.0,29.83,SW,231,2.0,8.0,81,0.00,,,0.00,,2013-02-14 23:52:00,
2013-02-14 19:01:00,37.0,31.0,29.84,WNW,290,4.0,11.0,80,0.00,,,0.00,,2013-02-15 00:01:00,
2013-02-14 19:11:00,37.0,31.0,29.84,WNW,290,4.0,11.0,80,0.00,,,0.00,,2013-02-15 00:11:00,
2013-02-14 19:22:00,37.0,32.0,29.85,NNW,344,1.0,4.0,81,0.00,,,0.00,,2013-02-15 00:22:00,
2013-02-14 19:32:00,36.0,30.0,29.86,WSW,237,1.0,4.0,80,0.00,,,0.00,,2013-02-15 00:32:00,
2013-02-14 19:42:00,36.0,30.0,29.86,WSW,237,1.0,4.0,80,0.00,,,0.00,,2013-02-15 00:42:00,
2013-02-14 19:52:00,36.0,30.0,29.87,SW,229,1.0,6.0,79,0.00,,,0.00,,2013-02-15 00:52:00,
2013-02-14 20:02:00,36.0,30.0,29.88,West,280,2.0,8.0,79,0.00,,,0.00,,2013-02-15 01:02:00,
2013-02-14 20:11:00,36.0,30.0,29.88,West,280,2.0,8.0,79,0.00,,,0.00,,2013-02-15 01:11:00,
2013-02-14 20:21:00,36.0,30.0,29.88,SSW,210,2.0,5.0,80,0.00,,,0.00,,2013-02-15 01:21:00,
2013-02-14 20:32:00,35.0,29.0,29.89,SW,227,1.0,4.0,80,0.00,,,0.00,,2013-02-15 01:32:00,
2013-02-14 20:42:00,35.0,29.0,29.89,SW,227,1.0,4.0,80,0.00,,,0.00,,2013-02-15 01:42:00,
2013-02-14 20:52:00,35.0,29.0,29.89,SSW,210,2.0,4.0,80,0.00,,,0.00,,2013-02-15 01:52:00,
2013-02-14 21:01:00,35.0,29.0,29.89,WNW,293,1.0,3.0,79,0.00,,,0.00,,2013-02-15 02:01:00,
2013-02-14 21:11:00,35.0,29.0,29.89,WNW,293,1.0,3.0,79,0.00,,,0.00,,2013-02-15 02:11:00,
2013-02-14 21:21:00,35.0,29.0,29.89,WNW,302,327.0,327.0,80,-99.99,,,-99.99,,2013-02-15 02:21:00,
2013-02-14 21:32:00,35.0,29.0,29.90,North,360,1.0,3.0,80,0.00,,,0.00,,2013-02-15 02:32:00,
2013-02-14 21:42:00,35.0,29.0,29.90,North,360,1.0,3.0,80,0.00,,,0.00,,2013-02-15 02:42:00,
2013-02-14 21:52:00,35.0,28.0,29.91,NNE,30,2.0,6.0,75,0.00,,,0.00,,2013-02-15 02:52:00,
2013-02-14 22:02:00,35.0,27.0,29.92,NW,309,1.0,4.0,73,0.00,,,0.00,,2013-02-15 03:02:00,
2013-02-14 22:11:00,35.0,27.0,29.92,NW,309,1.0,4.0,73,0.00,,,0.00,,2013-02-15 03:11:00,
2013-02-14 22:22:00,34.0,26.0,29.92,North,9,1.0,4.0,72,0.00,,,0.00,,2013-02-15 03:22:00,
2013-02-14 22:32:00,34.0,25.0,29.93,NW,321,2.0,5.0,68,0.00,,,0.00,,2013-02-15 03:32:00,
2013-02-14 22:42:00,34.0,25.0,29.93,NW,321,2.0,5.0,68,0.00,,,0.00,,2013-02-15 03:42:00,
2013-02-14 22:52:00,34.0,25.0,29.92,WSW,246,2.0,5.0,68,0.00,,,0.00,,2013-02-15 03:52:00,
2013-02-14 23:01:00,34.0,25.0,29.92,WSW,246,2.0,5.0,68,0.00,,,0.00,,2013-02-15 04:01:00,
2013-02-14 23:11:00,34.0,25.0,29.92,WSW,246,2.0,5.0,68,0.00,,,0.00,,2013-02-15 04:11:00,
2013-02-14 23:21:00,34.0,25.0,29.93,NNW,329,1.0,4.0,69,0.00,,,0.00,,2013-02-15 04:21:00,
2013-02-14 23:32:00,34.0,25.0,29.92,WNW,288,1.0,3.0,69,0.00,,,0.00,,2013-02-15 04:32:00,
2013-02-14 23:42:00,34.0,25.0,29.92,WNW,288,1.0,3.0,69,0.00,,,0.00,,2013-02-15 04:42:00,
2013-02-14 23:52:00,34.0,25.0,29.92,SW,234,0.0,3.0,70,0.00,,,0.00,,2013-02-15 04:52:00,